[[{"header":{"parameterUnit":"m.s-1","parameterCategory":1,"la1":30.2991,"la2":30.254,"lo1":-89.0895,"lo2":-89.0444,"dy":0.0017,"dx":0.0017,"nx":28,"ny":28,"refTime":"2024-08-21T21:00:00:Z","depth":0,"parameterNumber":2,"parameterNumberName":"U-component_of_WINDS"},"data":[0,0,0,0,0,0,0,0,0,0,0,0,0,0,0,0,0,0,0,0,0,0,0,0,0,0,0,0,0,0,0,0,0,0,0,0,0,0,0,0,0,0,0,0,0,0,0,0,0,0,0,0,0,0,0,0,0,0,-1.9474,-1.9474,0,-1.9451,-1.945,-1.945,-1.9381,-1.9379,-1.9378,-1.9376,-1.9355,-1.9355,-1.9356,0,0,0,0,0,0,0,0,0,0,0,0,0,-1.9461,-1.9461,-1.9474,-1.9474,-1.9473,-1.9451,-1.945,-1.945,-1.9381,-1.9379,-1.9377,-1.9376,-1.9354,-1.9355,-1.9356,0,0,0,0,0,0,0,0,0,0,0,0,0,-1.9455,-1.9462,-1.9474,-1.9436,-1.9433,-1.9451,-1.945,-1.945,-1.9381,-1.9379,-1.9377,-1.9375,-1.9354,-1.9355,-1.9356,-1.941,0,0,-1.936,-1.9361,0,0,0,0,0,0,0,0,-1.9455,-1.9456,-1.9442,-1.9439,-1.9435,-1.9416,-1.9437,-1.9437,-1.9382,-1.9401,-1.9376,-1.9374,-1.9377,-1.9376,-1.9377,-1.9409,-1.9408,-1.936,-1.9361,-1.9362,-1.9362,0,0,0,0,0,0,0,-1.9456,-1.9456,-1.9465,-1.9442,-1.9438,-1.9421,-1.9418,-1.9437,-1.9402,-1.9399,-1.9394,-1.9392,-1.9375,-1.9376,-1.9376,-1.9408,-1.936,-1.9361,-1.9362,-1.9363,-1.9482,-1.9485,0,0,0,0,0,0,-1.9461,-1.9457,-1.9465,-1.9464,-1.944,-1.9423,-1.9419,-1.9425,-1.9402,-1.9396,-1.9394,-1.9389,-1.9375,-1.9375,-1.9375,-1.9437,-1.9362,-1.9363,-1.9364,-1.948,-1.9483,-1.9486,0,0,0,0,0,0,-1.9461,-1.9463,-1.9466,-1.9459,-1.9458,-1.9426,-1.9432,-1.9425,-1.9426,-1.9398,-1.9391,-1.9402,-1.9373,-1.9373,-1.9402,-1.9435,-1.9363,-1.9365,-1.9477,-1.9481,-1.9484,-1.956,0,0,0,0,0,0,-1.9461,-1.9463,-1.9483,-1.946,-1.9459,-1.9493,-1.9434,-1.9426,-1.9429,-1.9422,-1.9403,-1.9398,-1.9371,-1.94,-1.9403,-1.9435,-1.9366,-1.9474,-1.9479,-1.9483,-1.9555,-1.9566,-1.9576,0,0,0,0,0,-1.9461,-1.9506,-1.9484,-1.9486,-1.9483,-1.9495,-1.9495,-1.9462,-1.9431,-1.9451,-1.9433,-1.9399,-1.943,-1.9404,-1.9406,-1.944,-1.9472,-1.9477,-1.9483,-1.955,-1.9564,-1.9576,0,0,0,0,0,0,-1.9535,-1.9502,-1.9478,-1.9517,-1.9509,-1.9484,-1.9508,-1.9478,-1.948,-1.9474,-1.9434,-1.943,-1.9465,-1.9454,-1.9425,-1.949,-1.9445,-1.9452,-1.9496,-1.9509,-1.9519,-1.9522,-1.9367,0,0,0,0,0,-1.9555,-1.9568,-1.9539,-1.9575,-1.9573,-1.9541,-1.9545,-1.9521,-1.9512,-1.9509,-1.9492,-1.9486,-1.9494,-1.95,-1.9506,-1.9552,-1.9548,-1.9576,-1.9587,-1.9596,-1.9602,-1.9626,-1.9639,-1.9503,-1.9503,-1.9503,0,0,-1.9598,-1.9582,-1.9592,-1.959,-1.9581,-1.9596,-1.9539,-1.9557,-1.9567,-1.9512,-1.9538,-1.9525,-1.9515,-1.9553,-1.9568,-1.9545,-1.9638,-1.9603,-1.961,-1.9612,-1.9633,-1.9646,-1.9658,-1.9507,-1.9507,-1.9506,0,0,-1.9684,-1.9673,-1.9702,-1.9694,-1.9682,-1.966,-1.9667,-1.9646,-1.9635,-1.966,-1.9619,-1.9631,-1.9646,-1.9641,-1.964,-1.9723,-1.9692,-1.9726,-1.9782,-1.9806,-1.9816,-1.9826,-1.9856,-1.9868,-1.9732,-1.9732,-1.9732,0,-1.974,-1.9759,-1.9721,-1.9742,-1.9742,-1.9691,-1.9721,-1.9715,-1.9706,-1.9708,-1.9681,-1.9699,-1.9689,-1.9724,-1.9745,-1.9745,-1.9753,-1.9729,-1.9818,-1.9826,-1.9835,-1.9864,-1.9875,-1.9736,-1.9736,-1.9735,-1.9735,0,-1.9828,-1.9842,-1.9868,-1.9859,-1.9862,-1.9887,-1.9854,-1.9861,-1.9836,-1.9817,-1.9844,-1.9829,-1.9831,-1.9837,-1.9813,-1.987,-1.9856,-1.9824,-1.9779,-1.9853,-1.9879,-1.989,-1.9742,-1.9741,-1.974,-1.9739,0,0,-1.9962,-1.9931,-1.9941,-1.9936,-1.9918,-1.9928,-1.9951,-1.9952,-1.996,-1.9955,-1.9974,-1.9987,-1.9957,-1.9956,-1.9931,-1.9952,-2.0019,-1.9917,-1.9916,-1.9938,-2.0082,-2.0107,-2.0121,-1.9998,-2.0,-2.0001,-2.0083,0,-2.0045,-2.0081,-2.0048,-2.0091,-2.0104,-2.0055,-2.0075,-2.0066,-2.0049,-2.0057,-2.0038,-2.0049,-2.0008,-2.0008,-2.0026,-2.0007,-2.0048,-2.0001,-2.0016,-2.0017,-2.0022,-2.0134,-2.0161,-2.024,-2.0093,-2.0095,-2.0096,0,-2.0146,-2.0145,-2.0189,-2.0168,-2.0172,-2.019,-2.0189,-2.0197,-2.0186,-2.0172,-2.0171,-2.0139,-2.0161,-2.0115,-2.0144,-2.0113,-2.0117,-2.0108,-2.0111,-2.0112,-2.0063,-2.0141,-2.0264,-2.0276,-2.0112,-2.0111,-2.011,0,-2.0241,-2.025,-2.0278,-2.0275,-2.025,-2.0264,-2.0255,-2.0241,-2.0244,-2.0243,-2.0244,-2.0246,-2.0247,-2.0249,-2.0219,-2.0188,-2.0253,-2.0204,-2.0243,-2.0244,-2.026,-2.026,-2.0388,-2.026,-2.026,-2.026,-2.026,0,-2.0338,-2.0368,-2.032,-2.0338,-2.0369,-2.033,-2.0363,-2.0348,-2.0336,-2.0351,-2.0308,-2.0322,-2.028,-2.0291,-2.0267,-2.0296,-2.0296,-2.0286,-2.028,-2.0291,-2.0293,-2.0295,-2.0289,-2.0263,-2.0262,-2.0262,-2.0261,0,-2.0451,-2.042,-2.0447,-2.042,-2.0414,-2.0439,-2.0417,-2.0432,-2.0411,-2.043,-2.0432,-2.04,-2.0409,-2.0379,-2.0384,-2.0368,-2.041,-2.0394,-2.0414,-2.041,-2.0451,-2.0448,-2.0585,-2.0602,-2.0463,-2.0464,-2.0465,0,-2.0515,-2.0537,-2.0512,-2.0518,-2.051,-2.0521,-2.0523,-2.0485,-2.0489,-2.0477,-2.0495,-2.05,-2.0503,-2.0521,-2.0499,-2.0502,-2.0487,-2.0535,-2.0488,-2.0498,-2.049,-2.0489,-2.0492,-2.0546,-2.0547,-2.0549,-2.055,0,-2.0634,-2.0617,-2.0622,-2.0621,-2.0625,-2.0623,-2.0618,-2.0625,-2.0584,-2.0591,-2.06,-2.0602,-2.0606,-2.0613,-2.0612,-2.0602,-2.057,-2.0564,-2.0574,-2.0586,-2.0598,-2.0594,-2.0443,-2.0562,-2.0561,-2.056,-2.0559,-2.0559,-2.0726,-2.0743,-2.0728,-2.0734,-2.0726,-2.0722,-2.0735,-2.0715,-2.0722,-2.0722,-2.0699,-2.0712,-2.07,-2.0695,-2.0689,-2.0699,-2.0677,-2.0691,-2.0694,-2.0699,-2.0706,-2.0594,-2.0699,-2.0698,-2.0698,-2.0698,-2.0697,0,-2.0844,-2.0831,-2.0837,-2.0831,-2.0836,-2.0803,-2.0795,-2.0802,-2.0815,-2.0806,-2.0809,-2.0819,-2.0825,-2.0803,-2.0806,-2.0819,-2.0804,-2.0821,-2.0821,-2.0819,-2.0725,-2.0717,-2.0833,-2.0833,-2.0833,-2.0833,-2.0833,-2.0833,-2.0906,-2.0933,-2.0914,-2.0937,-2.0924,-2.0936,-2.0935,-2.0931,-2.0924,-2.0937,-2.0941,-2.0926,-2.0912,-2.0913,-2.0917,-2.0911,-2.0914,-2.0937,-2.0926,-2.0839,-2.0826,-2.0813,-2.0806,-2.0938,-2.0938,-2.1019,-2.102,-2.102]},{"header":{"parameterUnit":"m.s-1","parameterCategory":1,"la1":30.2991,"la2":30.254,"lo1":-89.0895,"lo2":-89.0444,"dy":0.0017,"dx":0.0017,"nx":28,"ny":28,"refTime":"2024-08-21T21:00:00:Z","depth":0,"parameterNumber":3,"parameterNumberName":"V-component_of_WINDS"},"data":[0,0,0,0,0,0,0,0,0,0,0,0,0,0,0,0,0,0,0,0,0,0,0,0,0,0,0,0,0,0,0,0,0,0,0,0,0,0,0,0,0,0,0,0,0,0,0,0,0,0,0,0,0,0,0,0,0,0,-2.778,-2.7781,0,-2.7851,-2.7851,-2.7852,-2.7837,-2.7836,-2.7834,-2.7833,-2.7902,-2.7905,-2.7908,0,0,0,0,0,0,0,0,0,0,0,0,0,-2.7629,-2.7632,-2.778,-2.7781,-2.7782,-2.785,-2.7851,-2.7852,-2.7837,-2.7835,-2.7834,-2.7832,-2.7901,-2.7905,-2.7909,0,0,0,0,0,0,0,0,0,0,0,0,0,-2.7697,-2.7633,-2.778,-2.7783,-2.7784,-2.785,-2.7851,-2.7853,-2.7837,-2.7835,-2.7833,-2.7832,-2.79,-2.7905,-2.7909,-2.7977,0,0,-2.7923,-2.7925,0,0,0,0,0,0,0,0,-2.7693,-2.7702,-2.7781,-2.7783,-2.7784,-2.7833,-2.7824,-2.7894,-2.7838,-2.7817,-2.7833,-2.7831,-2.7881,-2.7887,-2.7904,-2.798,-2.7983,-2.7924,-2.7926,-2.7928,-2.793,0,0,0,0,0,0,0,-2.7688,-2.7699,-2.7808,-2.7782,-2.7784,-2.7779,-2.7787,-2.7837,-2.7859,-2.7819,-2.7818,-2.7826,-2.7881,-2.79,-2.7906,-2.7984,-2.7924,-2.7928,-2.793,-2.7932,-2.8119,-2.8121,0,0,0,0,0,0,-2.7683,-2.7695,-2.7806,-2.781,-2.7733,-2.7784,-2.7792,-2.7819,-2.7858,-2.7862,-2.7828,-2.7825,-2.7893,-2.79,-2.7908,-2.799,-2.7928,-2.7933,-2.7935,-2.8117,-2.8119,-2.8122,0,0,0,0,0,0,-2.768,-2.7693,-2.7803,-2.7753,-2.7766,-2.7788,-2.7819,-2.7822,-2.784,-2.7865,-2.7869,-2.7843,-2.7892,-2.7902,-2.796,-2.7993,-2.7935,-2.7939,-2.8114,-2.8118,-2.8121,-2.8155,0,0,0,0,0,0,-2.7676,-2.7692,-2.7719,-2.7753,-2.7769,-2.7855,-2.7821,-2.7824,-2.7849,-2.7846,-2.7881,-2.7885,-2.7891,-2.7953,-2.7965,-2.7998,-2.7943,-2.8111,-2.8116,-2.812,-2.8151,-2.8159,-2.8166,0,0,0,0,0,-2.767,-2.7725,-2.772,-2.7734,-2.7803,-2.7857,-2.7865,-2.7872,-2.7851,-2.7878,-2.7894,-2.7884,-2.7987,-2.7959,-2.7972,-2.8007,-2.8109,-2.8114,-2.8119,-2.8148,-2.8158,-2.8166,0,0,0,0,0,0,-2.7693,-2.773,-2.7725,-2.7792,-2.7822,-2.7854,-2.7888,-2.7882,-2.7917,-2.7913,-2.7919,-2.7927,-2.7987,-2.8002,-2.7971,-2.8075,-2.8045,-2.8053,-2.8062,-2.8072,-2.8079,-2.8075,-2.7946,0,0,0,0,0,-2.7706,-2.7747,-2.7777,-2.7833,-2.7848,-2.7866,-2.7889,-2.7892,-2.7922,-2.7934,-2.7954,-2.7983,-2.8022,-2.8048,-2.8085,-2.8153,-2.816,-2.8183,-2.819,-2.8196,-2.8203,-2.8241,-2.8251,-2.8138,-2.8138,-2.8138,0,0,-2.7733,-2.7758,-2.7784,-2.7839,-2.7862,-2.7904,-2.7876,-2.7922,-2.7953,-2.7941,-2.7998,-2.8013,-2.8046,-2.811,-2.8139,-2.8124,-2.8236,-2.8203,-2.8207,-2.8211,-2.8247,-2.8258,-2.8267,-2.8141,-2.8141,-2.814,0,0,-2.7804,-2.7827,-2.7877,-2.7901,-2.7936,-2.7947,-2.7959,-2.7993,-2.8003,-2.806,-2.8052,-2.8088,-2.8155,-2.8179,-2.82,-2.8279,-2.8271,-2.8291,-2.833,-2.8366,-2.8375,-2.8383,-2.8412,-2.8422,-2.8297,-2.8297,-2.8297,0,-2.7833,-2.7897,-2.7903,-2.795,-2.7974,-2.7966,-2.8017,-2.8039,-2.8084,-2.8101,-2.8084,-2.8168,-2.8189,-2.8259,-2.8278,-2.8295,-2.8308,-2.8287,-2.8373,-2.8381,-2.8389,-2.8417,-2.8427,-2.83,-2.8299,-2.8299,-2.8299,0,-2.7931,-2.7975,-2.8011,-2.8057,-2.8085,-2.8133,-2.8146,-2.8173,-2.8173,-2.8186,-2.8244,-2.8269,-2.8311,-2.8327,-2.8327,-2.8397,-2.8387,-2.8372,-2.8343,-2.8402,-2.8428,-2.8439,-2.8303,-2.8302,-2.8301,-2.8301,0,0,-2.8019,-2.8067,-2.808,-2.8101,-2.8139,-2.8173,-2.822,-2.8263,-2.8286,-2.8317,-2.8357,-2.8414,-2.84,-2.8424,-2.8426,-2.8458,-2.852,-2.8439,-2.8439,-2.8453,-2.8598,-2.861,-2.8622,-2.8514,-2.8516,-2.8517,-2.8595,0,-2.8094,-2.8179,-2.8186,-2.8262,-2.8304,-2.8296,-2.8337,-2.8364,-2.8377,-2.8413,-2.8426,-2.8466,-2.8445,-2.8459,-2.849,-2.8506,-2.8549,-2.85,-2.8551,-2.8553,-2.8544,-2.8635,-2.8648,-2.8721,-2.8605,-2.8607,-2.8608,0,-2.8193,-2.8229,-2.831,-2.8342,-2.836,-2.8397,-2.8436,-2.847,-2.8501,-2.8508,-2.8534,-2.8532,-2.858,-2.8548,-2.8614,-2.858,-2.8601,-2.8612,-2.8615,-2.862,-2.8585,-2.8644,-2.8744,-2.8755,-2.8624,-2.8623,-2.8622,0,-2.8251,-2.8318,-2.8375,-2.8393,-2.8432,-2.8458,-2.8476,-2.8504,-2.8529,-2.8563,-2.8579,-2.8617,-2.8639,-2.8668,-2.8676,-2.8652,-2.8742,-2.871,-2.8749,-2.8749,-2.8769,-2.8768,-2.8874,-2.8781,-2.8781,-2.878,-2.878,0,-2.8334,-2.8384,-2.8402,-2.8437,-2.8492,-2.8499,-2.8553,-2.8569,-2.8594,-2.8632,-2.8626,-2.8661,-2.8669,-2.8706,-2.8712,-2.8766,-2.8775,-2.8782,-2.8783,-2.8783,-2.8782,-2.8798,-2.8793,-2.8783,-2.8783,-2.8782,-2.8781,0,-2.8408,-2.8422,-2.8484,-2.8516,-2.8525,-2.8565,-2.8592,-2.8625,-2.8637,-2.8684,-2.8695,-2.8713,-2.8756,-2.8767,-2.8817,-2.8821,-2.8885,-2.8881,-2.8875,-2.8875,-2.8913,-2.891,-2.9034,-2.9051,-2.8946,-2.8946,-2.8947,0,-2.8461,-2.85,-2.8536,-2.8562,-2.8581,-2.8621,-2.8647,-2.8654,-2.8681,-2.8718,-2.8747,-2.8789,-2.8824,-2.8892,-2.8909,-2.8947,-2.8944,-2.8985,-2.895,-2.8949,-2.8946,-2.8944,-2.8948,-2.8992,-2.8993,-2.8994,-2.8995,0,-2.8555,-2.8559,-2.8597,-2.8638,-2.8669,-2.87,-2.8731,-2.8751,-2.8763,-2.8793,-2.8837,-2.8864,-2.8915,-2.8957,-2.8996,-2.9012,-2.9006,-2.9005,-2.9016,-2.9017,-2.9013,-2.9017,-2.8894,-2.9003,-2.9002,-2.9001,-2.9001,-2.9001,-2.862,-2.8654,-2.8686,-2.8728,-2.8751,-2.878,-2.8813,-2.8829,-2.8866,-2.891,-2.8911,-2.8959,-2.8988,-2.904,-2.9058,-2.9095,-2.9083,-2.9099,-2.9103,-2.9107,-2.9111,-2.9006,-2.9102,-2.9102,-2.9102,-2.9101,-2.9101,0,-2.8714,-2.8734,-2.8773,-2.8816,-2.8849,-2.884,-2.8873,-2.8901,-2.8944,-2.8971,-2.9005,-2.9056,-2.9096,-2.9116,-2.9156,-2.9181,-2.9179,-2.9192,-2.919,-2.9194,-2.9119,-2.9106,-2.9193,-2.9193,-2.9193,-2.9193,-2.9193,-2.9193,-2.8767,-2.8824,-2.8833,-2.8901,-2.892,-2.8968,-2.8987,-2.9013,-2.9036,-2.9093,-2.9127,-2.914,-2.9164,-2.9206,-2.9242,-2.9247,-2.9262,-2.9276,-2.9279,-2.9209,-2.92,-2.9191,-2.9179,-2.9279,-2.9279,-2.9352,-2.9352,-2.9353]}]]